This demonstration page uses our WeatherBlox Daily Observations layout. Learn more.

Hourly Observations for August 18, 2017

Temp ( °F °C ) Dew Point ( °F °C ) Humidity (%) Winds ( mph kmh ) Pressure ( in mb ) Visibility ( mi km ) Precip ( " mm )
12:54 am 00:54 Clear 67 19.4 62 16.7 84 84 Calm 29.91 1013 10 16.0934 0 0
1:54 am 01:54 Clear 64 17.8 62 16.7 93 93 S 5 7 29.91 1013 10 16.0934 0 0
2:41 am 02:41 Partly Cloudy 70 21.1 61 16.1 73 73 NW 14 22 29.94 1014 10 16.0934 0 0
2:54 am 02:54 Partly Cloudy 71 21.7 61 16.1 71 71 NNW 14 22 29.94 1014 10 16.0934 0 0
3:54 am 03:54 Mostly Cloudy 68 20 61 16.1 78 78 Calm 29.91 1013 10 16.0934 0 0.0254
4:54 am 04:54 Cloudy 69 20.6 61 16.1 76 76 NNW 3 6 29.92 1013 10 16.0934 0 0
5:54 am 05:54 Mostly Clear 67 19.4 61 16.1 81 81 SSE 15 24 29.83 1010 10 16.0934 0 0
6:54 am 06:54 Sunny 67 19.4 60 15.6 79 79 S 5 7 29.87 1012 10 16.0934 0 0
7:54 am 07:54 Mostly Cloudy 69 20.6 61 16.1 76 76 NNW 6 9 29.89 1012 10 16.0934 0 0
8:54 am 08:54 Mostly Sunny 70 21.1 64 17.8 82 82 NNW 9 15 29.93 1014 10 16.0934 0 0
9:54 am 09:54 Mostly Sunny 74 23.3 63 17.2 69 69 NNW 7 11 29.95 1014 10 16.0934 0 0
10:54 am 10:54 Sunny 78 25.6 62 16.7 58 58 VRB 3 6 29.94 1014 10 16.0934 0 0
11:54 am 11:54 Sunny 81 27.2 63 17.2 54 54 undefined N/A 29.93 1014 10 16.0934 0 0
12:54 pm 12:54 Sunny 83 28.3 63 17.2 51 51 WNW 8 13 29.92 1013 10 16.0934 0 0
1:54 pm 13:54 Sunny 84 28.9 63 17.2 49 49 NNW 8 13 29.91 1013 10 16.0934 0 0
2:54 pm 14:54 Sunny 85 29.4 65 18.3 51 51 N 7 11 29.9 1012 10 16.0934 0 0
3:54 pm 15:54 Sunny 86 30 62 16.7 45 45 NW 6 9 29.89 1012 10 16.0934 0 0
4:54 pm 16:54 Sunny 86 30 63 17.2 46 46 undefined N/A 29.88 1012 10 16.0934 0 0
4:59 pm 16:59 Sunny 85 29.4 64 17.8 50 50 SW 8 13 29.85 1011 10 16.0934 0 0
5:54 pm 17:54 Sunny 85 29.4 64 17.8 50 50 VRB 3 6 29.88 1012 10 16.0934 0 0
6:54 pm 18:54 Sunny 84 28.9 65 18.3 53 53 W 7 11 29.88 1012 10 16.0934 0 0
7:54 pm 19:54 Sunny 82 27.8 66 18.9 58 58 WSW 5 7 29.88 1012 10 16.0934 0 0
8:54 pm 20:54 Clear 80 26.7 67 19.4 64 64 W 3 6 29.89 1012 10 16.0934 0 0
9:54 pm 21:54 Mostly Clear 75 23.9 67 19.4 76 76 S 3 6 29.91 1013 10 16.0934 0 0
10:54 pm 22:54 Clear 70 21.1 66 18.9 87 87 NNE 3 6 29.93 1014 10 16.0934 0 0
11:54 pm 23:54 Clear 70 21.1 67 19.4 90 90 N 7 11 29.93 1014 10 16.0934 0 0

Powered by AerisWeather